Change the Weather History Date:

Tuesday, June 4, 2013

  Actual Average (KCEW) Record (KCEW)
Temperature  
Mean Temperature 82 °F -  
Max Temperature 93 °F 90 °F 104 °F (2011)
Min Temperature 72 °F 66 °F 57 °F (2006)
Cooling Degree Days 18    
Growing Degree Days 32 (Base 50)    
Moisture  
Dew Point 70 °F    
Average Humidity 74    
Maximum Humidity 91    
Minimum Humidity 44    
Precipitation  
Precipitation 0.00 in - - ()
Sea Level Pressure  
Sea Level Pressure 29.94 in    
Wind  
Wind Speed 1 mph (South)    
Max Wind Speed 6 mph    
Max Gust Speed -    
Visibility 9 miles    
Events      
Averages and records for this station are not official NWS values.
T = Trace of Precipitation, MM = Missing Value Source: NWS Daily Summary

Daily Weather History Graph

Daily Weather History Graph

Search for Another Location

Airport or City:

Trip Planner

Search our weather history database for the weather conditions in past years. The results will help you decide how hot, cold, wet, or windy it might be!

Date:

Astronomy

Jun. 04, 2013 Rise Set
Actual Time 5:41 AM CDT 7:46 PM CDT
Civil Twilight 5:13 AM CDT 8:14 PM CDT
Nautical Twilight 4:39 AM CDT 8:48 PM CDT
Astronomical Twilight 4:03 AM CDT 9:24 PM CDT
Moon 2:58 AM CDT (6/4) 4:25 PM CDT (6/4)
Length of Visible Light 15h 01m
Length of Day
14h 05m
Waning Crescent, 14% of the Moon is Illuminated
Jun 4
Waning Crescent
Jun 8
New
Jun 16
First Quarter
Jun 23
Full
Jun 29
Last Quarter

Hourly Weather History & Observations

Time (CDT) Temp. Heat Index Dew Point Humidity Pressure Visibility Wind Dir Wind Speed Gust Speed Precip Events Conditions
12:14 AM 75.2 °F - 71.6 °F 89% 29.95 in 10.0 mi Calm Calm - N/A   Mostly Cloudy
12:28 AM 75.2 °F - 71.6 °F 89% 29.95 in 10.0 mi Calm Calm - N/A   Mostly Cloudy
12:56 AM 73.9 °F - 71.1 °F 91% 29.93 in 8.0 mi Calm Calm - N/A   Clear
1:56 AM 73.0 °F - 70.0 °F 90% 29.92 in 8.0 mi Calm Calm - N/A   Clear
2:56 AM 73.9 °F - 70.0 °F 87% 29.91 in 9.0 mi Calm Calm - N/A   Clear
3:56 AM 73.0 °F - 69.1 °F 87% 29.91 in 6.0 mi Calm Calm - N/A   Clear
4:56 AM 73.0 °F - 69.1 °F 87% 29.93 in 10.0 mi Calm Calm - N/A   Clear
5:56 AM 72.0 °F - 68.0 °F 87% 29.94 in 4.0 mi Calm Calm - N/A   Clear
6:49 AM 73.4 °F - 69.8 °F 88% 29.97 in 7.0 mi Calm Calm - N/A   Mostly Cloudy
6:56 AM 73.9 °F - 70.0 °F 87% 29.96 in 6.0 mi Calm Calm - N/A   Mostly Cloudy
7:56 AM 79.0 °F - 72.0 °F 79% 29.96 in 10.0 mi Calm Calm - N/A   Clear
8:21 AM 80.6 °F 85.4 °F 73.4 °F 79% 29.98 in 10.0 mi Calm Calm - N/A   Scattered Clouds
8:30 AM 80.6 °F 84.6 °F 71.6 °F 74% 29.98 in 10.0 mi Calm Calm - N/A   Mostly Cloudy
8:56 AM 82.0 °F 86.7 °F 72.0 °F 71% 29.96 in 10.0 mi SE 3.5 mph - N/A   Scattered Clouds
9:12 AM 82.4 °F 87.2 °F 71.6 °F 70% 29.98 in 10.0 mi South 3.5 mph - N/A   Mostly Cloudy
9:46 AM 84.2 °F 88.4 °F 69.8 °F 62% 29.98 in 10.0 mi SE 4.6 mph - N/A   Scattered Clouds
9:56 AM 84.0 °F 88.4 °F 70.0 °F 63% 29.97 in 10.0 mi Variable 3.5 mph - N/A   Partly Cloudy
10:56 AM 86.0 °F 90.1 °F 69.1 °F 57% 29.97 in 10.0 mi SSW 4.6 mph - N/A   Clear
11:56 AM 88.0 °F 91.4 °F 68.0 °F 51% 29.96 in 10.0 mi South 5.8 mph - N/A   Clear
12:56 PM 90.0 °F 92.8 °F 66.9 °F 46% 29.95 in 10.0 mi Calm Calm - N/A   Partly Cloudy
1:56 PM 90.0 °F 92.8 °F 66.9 °F 46% 29.93 in 10.0 mi South 3.5 mph - N/A   Partly Cloudy
2:56 PM 93.0 °F 97.4 °F 68.0 °F 44% 29.90 in 10.0 mi ESE 5.8 mph - N/A   Scattered Clouds
3:56 PM 91.9 °F 95.9 °F 68.0 °F 45% 29.91 in 10.0 mi WSW 5.8 mph - N/A   Partly Cloudy
4:56 PM 81.0 °F 84.4 °F 70.0 °F 69% 29.91 in 10.0 mi SW 5.8 mph - N/A   Clear
5:56 PM 81.0 °F 84.4 °F 70.0 °F 69% 29.91 in 10.0 mi Variable 3.5 mph - N/A   Mostly Cloudy
6:56 PM 80.1 °F 83.6 °F 71.1 °F 74% 29.91 in 10.0 mi WSW 3.5 mph - N/A   Clear
7:56 PM 80.1 °F 83.8 °F 72.0 °F 76% 29.92 in 10.0 mi Calm Calm - N/A   Clear
8:56 PM 79.0 °F - 72.0 °F 79% 29.93 in 10.0 mi Calm Calm - N/A   Clear
9:56 PM 77.0 °F - 72.0 °F 84% 29.95 in 10.0 mi Calm Calm - N/A   Clear
10:56 PM 77.0 °F - 72.0 °F 84% 29.96 in 10.0 mi Calm Calm - N/A   Clear
11:56 PM 75.0 °F - 71.1 °F 87% 29.97 in 10.0 mi Calm Calm - N/A   Clear